Weather History for Billings, MT

Change the Weather History Date:

Tuesday, October 15, 2013

  Actual Average Record
Temperature  
Mean Temperature 41 °F 49 °F  
Max Temperature 49 °F 60 °F 84 °F (1958)
Min Temperature 33 °F 37 °F 24 °F (1992)
Degree Days  
Heating Degree Days 24 16  
Month to date heating degree days 295 210  
Since 1 July heating degree days 409 439  
Cooling Degree Days 0 0  
Month to date cooling degree days 0 0  
Year to date cooling degree days 840 633  
Moisture  
Dew Point 31 °F    
Average Humidity 71    
Maximum Humidity 96    
Minimum Humidity 45    
Precipitation  
Precipitation 0.00 in 0.05 in 0.96 in (1980)
Month to date precipitation 2.19 0.66  
Year to date precipitation 14.00 12.01  
Snow  
Snow 0.00 in 0.20 in 9.50 in (1980)
Month to date snowfall 0.3 1.8  
Since 1 July snowfall 0.3 2.9  
Since 1 September snowfall 0.3 2.9  
Snow Depth 0.00 in    
Sea Level Pressure  
Sea Level Pressure 30.32 in    
Wind  
Wind Speed 12 mph (SW)    
Max Wind Speed 23 mph    
Max Gust Speed 32 mph    
Visibility 10 miles    
Events      
T = Trace of Precipitation, MM = Missing Value Source: NWS Daily Summary

Daily Weather History Graph

Daily Weather History Graph

Search for Another Location

Airport:

Trip Planner

Search our weather history database for the weather conditions in past years. The results will help you decide how hot, cold, wet, or windy it might be!

Date:

Astronomy

Oct. 15, 2013 Rise Set
Actual Time 7:31 AM MDT 6:27 PM MDT
Civil Twilight 7:01 AM MDT 6:57 PM MDT
Nautical Twilight 6:26 AM MDT 7:32 PM MDT
Astronomical Twilight 5:52 AM MDT 8:06 PM MDT
Moon 4:42 PM MDT (10/15) 3:47 AM MDT (10/15)
Length of Visible Light 11h 56m
Length of Day
10h 56m
Waxing Gibbous, 88% of the Moon is Illuminated
Oct 15
Waxing Gibbous
Oct 18
Full
Oct 26
Last Quarter
Nov 3
New
Nov 9
First Quarter

Hourly Weather History & Observations

Time (MDT) Temp. Windchill Dew Point Humidity Pressure Visibility Wind Dir Wind Speed Gust Speed Precip Events Conditions
12:53 AM 37.9 °F 33.5 °F 32.0 °F 79% 30.44 in 10.0 mi SW 5.8 mph - N/A   Mostly Cloudy
1:53 AM 36.0 °F 32.1 °F 32.0 °F 86% 30.44 in 10.0 mi SSW 4.6 mph - N/A   Partly Cloudy
2:53 AM 36.0 °F 29.6 °F 33.1 °F 89% 30.43 in 10.0 mi SW 8.1 mph - N/A   Scattered Clouds
3:53 AM 35.1 °F 28.6 °F 32.0 °F 89% 30.43 in 10.0 mi SW 8.1 mph - N/A   Partly Cloudy
4:53 AM 34.0 °F 26.6 °F 32.0 °F 92% 30.42 in 10.0 mi SSW 9.2 mph - N/A   Mostly Cloudy
5:53 AM 34.0 °F 27.2 °F 32.0 °F 92% 30.42 in 10.0 mi SW 8.1 mph - N/A   Partly Cloudy
6:53 AM 34.0 °F 25.5 °F 30.9 °F 89% 30.41 in 10.0 mi SW 11.5 mph - N/A   Partly Cloudy
7:53 AM 34.0 °F 26.0 °F 30.9 °F 89% 30.42 in 10.0 mi SW 10.4 mph - N/A   Partly Cloudy
8:53 AM 34.0 °F 25.0 °F 30.9 °F 89% 30.43 in 10.0 mi SW 12.7 mph - N/A   Clear
9:53 AM 37.0 °F 28.9 °F 32.0 °F 82% 30.42 in 10.0 mi SW 12.7 mph - N/A   Clear
10:53 AM 39.9 °F 32.9 °F 32.0 °F 73% 30.40 in 10.0 mi SSW 11.5 mph - N/A   Partly Cloudy
11:53 AM 44.1 °F 39.5 °F 35.1 °F 71% 30.36 in 10.0 mi WSW 8.1 mph - N/A   Partly Cloudy
12:53 PM 45.0 °F 40.6 °F 34.0 °F 65% 30.33 in 10.0 mi SW 8.1 mph - N/A   Scattered Clouds
1:53 PM 48.0 °F - 33.1 °F 56% 30.29 in 10.0 mi SSW 11.5 mph 19.6 mph N/A   Scattered Clouds
2:53 PM 48.0 °F - 30.9 °F 52% 30.26 in 10.0 mi SW 13.8 mph - N/A   Partly Cloudy
3:53 PM 48.0 °F - 30.9 °F 52% 30.24 in 10.0 mi SW 11.5 mph - N/A   Clear
4:53 PM 48.9 °F - 28.9 °F 46% 30.22 in 10.0 mi WSW 10.4 mph - N/A   Clear
5:53 PM 46.9 °F - 27.0 °F 46% 30.21 in 10.0 mi WSW 11.5 mph - N/A   Clear
6:53 PM 44.1 °F 39.0 °F 28.9 °F 55% 30.20 in 10.0 mi SW 9.2 mph - N/A   Clear
7:53 PM 43.0 °F 35.7 °F 28.9 °F 58% 30.19 in 10.0 mi WSW 15.0 mph - N/A   Clear
8:53 PM 41.0 °F 32.2 °F 28.9 °F 62% 30.18 in 10.0 mi WSW 18.4 mph - N/A   Clear
10:53 PM 39.0 °F 29.0 °F 28.0 °F 65% 30.15 in 10.0 mi WSW 20.7 mph - N/A   Clear
11:53 PM 39.0 °F 29.3 °F 27.0 °F 62% 30.13 in 10.0 mi WSW 19.6 mph - N/A   Clear